IU1FIL-23 Weather Reports


Display with metric or nautical units.
time (UTC)temp
F
wind
direction
speed
MPH
gust
MPH
rain 1hr
in
rain 24hr
in
rain mn
in
humidity
%
barometer
mb
20260508002641 46 0.0 0.0 0.00 0.00 0.00 10 1015.9
20260508001637 47 0.0 0.0 0.00 0.00 0.00 10 1016.0
20260508000633 46 0.0 0.0 0.00 0.00 0.00 10 1016.1
20260507235628 46 0.0 0.0 0.00 0.00 0.00 10 1016.2
20260507234624 47 0.0 0.0 0.00 0.00 0.00 10 1016.1
20260507233620 47 0.0 0.0 0.00 0.00 0.00 10 1016.2
20260507232616 47 0.0 0.0 0.00 0.00 0.00 10 1016.3
20260507231612 47 0.0 0.0 0.00 0.00 0.00 10 1016.3
20260507230608 47 0.0 0.0 0.00 0.00 0.00 10 1016.5
20260507225604 48 0.0 0.0 0.00 0.00 0.00 10 1016.5
20260507224600 48 0.0 0.0 0.00 0.00 0.00 10 1016.6
20260507223556 48 0.0 0.0 0.00 0.00 0.00 10 1016.7
20260507222551 47 0.0 0.0 0.00 0.00 0.00 10 1016.7
20260507221547 48 0.0 0.0 0.00 0.00 0.00 10 1016.7
20260507220543 48 0.0 0.0 0.00 0.00 0.00 10 1016.6
20260507215539 48 0.0 0.0 0.00 0.00 0.00 10 1016.6
20260507214535 48 0.0 0.0 0.00 0.00 0.00 10 1016.6
20260507213531 48 0.0 0.0 0.00 0.00 0.00 10 1016.5
20260507212527 48 0.0 0.0 0.00 0.00 0.00 10 1016.3
20260507211523 48 0.0 0.0 0.00 0.00 0.00 10 1016.3
20260507210519 48 0.0 0.0 0.00 0.00 0.00 10 1016.3
20260507205514 48 0.0 0.0 0.00 0.00 0.00 10 1016.2
20260507204510 48 0.0 0.0 0.00 0.00 0.00 10 1016.3
20260507203506 49 0.0 0.0 0.00 0.00 0.00 10 1016.2
20260507202502 49 0.0 0.0 0.00 0.00 0.00 10 1016.4
20260507201458 49 0.0 0.0 0.00 0.00 0.00 10 1016.3
20260507200454 49 0.0 0.0 0.00 0.00 0.00 10 1016.3
20260507195450 49 0.0 0.0 0.00 0.00 0.00 10 1016.2
20260507194658 49 0.0 0.0 0.00 0.00 0.00 10 1016.2
20260507194446 49 0.0 0.0 0.00 0.00 0.00 10 1016.2
20260507193442 49 0.0 0.0 0.00 0.00 0.00 10 1016.1
20260507192437 49 0.0 0.0 0.00 0.00 0.00 10 1016.0
20260507191433 49 0.0 0.0 0.00 0.00 0.00 10 1015.8
20260507190429 49 0.0 0.0 0.00 0.00 0.00 10 1015.8
20260507185425 49 0.0 0.0 0.00 0.00 0.00 10 1015.7
20260507184421 49 0.0 0.0 0.00 0.00 0.00 10 1015.7
20260507183417 49 0.0 0.0 0.00 0.00 0.00 10 1015.7
20260507182413 49 0.0 0.0 0.00 0.00 0.00 10 1015.7
20260507181409 50 0.0 0.0 0.00 0.00 0.00 10 1015.8
20260507180405 52 0.0 0.0 0.00 0.00 0.00 10 1015.6
20260507175400 53 0.0 0.0 0.00 0.00 0.00 10 1015.6
20260507174356 54 0.0 0.0 0.00 0.00 0.00 10 1015.7
20260507173352 53 0.0 0.0 0.00 0.00 0.00 10 1015.5
20260507172348 53 0.0 0.0 0.00 0.00 0.00 10 1015.6
20260507171344 53 0.0 0.0 0.00 0.00 0.00 10 1015.8
20260507170340 54 0.0 0.0 0.00 0.00 0.00 10 1015.8
20260507165336 55 0.0 0.0 0.00 0.00 0.00 10 1015.7
20260507164332 56 0.0 0.0 0.00 0.00 0.00 10 1015.7
20260507163328 56 0.0 0.0 0.00 0.00 0.00 10 1015.7
20260507162323 58 0.0 0.0 0.00 0.00 0.00 10 1015.8
20260507161319 58 0.0 0.0 0.00 0.00 0.00 10 1015.7
20260507160328 60 0.0 0.0 0.00 0.00 0.00 10 1015.6
20260507155311 59 0.0 0.0 0.00 0.00 0.00 10 1015.6
20260507154307 61 0.0 0.0 0.00 0.00 0.00 10 1015.5
20260507153303 63 0.0 0.0 0.00 0.00 0.00 10 1015.5
20260507152259 65 0.0 0.0 0.00 0.00 0.00 10 1015.4
20260507151255 59 0.0 0.0 0.00 0.00 0.00 10 1015.5
20260507150250 58 0.0 0.0 0.00 0.00 0.00 10 1015.6
20260507145246 55 0.0 0.0 0.00 0.00 0.00 10 1015.7
20260507144228 55 0.0 0.0 0.00 0.00 0.00 10 1015.7
20260507143215 55 0.0 0.0 0.00 0.00 0.00 10 1015.6
20260507142211 55 0.0 0.0 0.00 0.00 0.00 10 1015.6
20260507141207 52 0.0 0.0 0.00 0.00 0.00 10 1015.6
20260507140157 52 0.0 0.0 0.00 0.00 0.00 10 1015.7
20260507135144 51 0.0 0.0 0.00 0.00 0.00 10 1015.9
20260507134134 51 0.0 0.0 0.00 0.00 0.00 10 1016.0
20260507133126 53 0.0 0.0 0.00 0.00 0.00 10 1016.0
20260507132122 54 0.0 0.0 0.00 0.00 0.00 10 1016.0
20260507131118 56 0.0 0.0 0.00 0.00 0.00 10 1016.0
20260507130105 58 0.0 0.0 0.00 0.00 0.00 99 1015.9
20260507125100 58 0.0 0.0 0.00 0.00 0.00 99 1015.9
20260507124056 57 0.0 0.0 0.00 0.00 0.00 10 1015.8
20260507123052 56 0.0 0.0 0.00 0.00 0.00 10 1015.6
20260507122048 56 0.0 0.0 0.00 0.00 0.00 10 1015.8
20260507121044 55 0.0 0.0 0.00 0.00 0.00 10 1015.6
20260507120040 56 0.0 0.0 0.00 0.00 0.00 10 1015.6
20260507115036 57 0.0 0.0 0.00 0.00 0.00 10 1015.4
20260507114032 57 0.0 0.0 0.00 0.00 0.00 10 1015.6
20260507113028 57 0.0 0.0 0.00 0.00 0.00 10 1015.6
20260507112023 58 0.0 0.0 0.00 0.00 0.00 98 1015.7
20260507111019 60 0.0 0.0 0.00 0.00 0.00 95 1015.8
20260507110015 60 0.0 0.0 0.00 0.00 0.00 92 1015.7
20260507105011 60 0.0 0.0 0.00 0.00 0.00 88 1015.8
20260507103953 61 0.0 0.0 0.00 0.00 0.00 91 1015.8
20260507102940 63 0.0 0.0 0.00 0.00 0.00 86 1015.8
20260507101936 65 0.0 0.0 0.00 0.00 0.00 81 1015.8
20260507100931 61 0.0 0.0 0.00 0.00 0.00 83 1015.9
20260507095926 58 0.0 0.0 0.00 0.00 0.00 92 1015.9
20260507094922 59 0.0 0.0 0.00 0.00 0.00 92 1015.8
20260507093917 61 0.0 0.0 0.00 0.00 0.00 86 1015.7
20260507092913 58 0.0 0.0 0.00 0.00 0.00 93 1015.6
20260507091908 59 0.0 0.0 0.00 0.00 0.00 10 1015.6
20260507090903 57 0.0 0.0 0.00 0.00 0.00 10 1015.5
20260507085848 57 0.0 0.0 0.00 0.00 0.00 10 1015.4
20260507084843 57 0.0 0.0 0.00 0.00 0.00 10 1015.3
20260507083838 57 0.0 0.0 0.00 0.00 0.00 10 1015.2
20260507082832 58 0.0 0.0 0.00 0.00 0.00 10 1015.1
20260507081837 58 0.0 0.0 0.00 0.00 0.00 10 1015.1
20260507080823 61 0.0 0.0 0.00 0.00 0.00 86 1015.1
20260507075819 66 0.0 0.0 0.00 0.00 0.00 93 1015.1
20260507074814 63 0.0 0.0 0.00 0.00 0.00 98 1015.0
20260507073809 62 0.0 0.0 0.00 0.00 0.00 92 1014.9
20260507072805 61 0.0 0.0 0.00 0.00 0.00 84 1015.0
20260507071800 61 0.0 0.0 0.00 0.00 0.00 10 1014.9
20260507070756 60 0.0 0.0 0.00 0.00 0.00 10 1014.8
20260507065751 59 0.0 0.0 0.00 0.00 0.00 10 1014.8
20260507064747 58 0.0 0.0 0.00 0.00 0.00 10 1014.6
20260507063742 58 0.0 0.0 0.00 0.00 0.00 10 1014.5
20260507062730 57 0.0 0.0 0.00 0.00 0.00 10 1014.4
20260507061725 57 0.0 0.0 0.00 0.00 0.00 10 1014.3
20260507060720 58 0.0 0.0 0.00 0.00 0.00 10 1014.2
20260507055716 58 0.0 0.0 0.00 0.00 0.00 10 1014.1
20260507054711 57 0.0 0.0 0.00 0.00 0.00 10 1014.1
20260507053707 57 0.0 0.0 0.00 0.00 0.00 10 1014.0
20260507052702 56 0.0 0.0 0.00 0.00 0.00 10 1013.9
20260507051657 55 0.0 0.0 0.00 0.00 0.00 10 1013.7
20260507050653 54 0.0 0.0 0.00 0.00 0.00 10 1013.5
20260507045648 51 0.0 0.0 0.00 0.00 0.00 10 1013.5
20260507044643 47 0.0 0.0 0.00 0.00 0.00 10 1013.5
20260507043639 46 0.0 0.0 0.00 0.00 0.00 10 1013.4
20260507042634 45 0.0 0.0 0.00 0.00 0.00 10 1013.3
20260507041630 45 0.0 0.0 0.00 0.00 0.00 10 1013.2
20260507040625 45 0.0 0.0 0.00 0.00 0.00 10 1013.2
20260507035620 45 0.0 0.0 0.00 0.00 0.00 10 1013.1
20260507034616 45 0.0 0.0 0.00 0.00 0.00 10 1013.1
20260507033611 45 0.0 0.0 0.00 0.00 0.00 10 1013.0
20260507032607 45 0.0 0.0 0.00 0.00 0.00 10 1012.9
20260507031602 45 0.0 0.0 0.00 0.00 0.00 10 1013.0
20260507030557 44 0.0 0.0 0.00 0.00 0.00 10 1012.8
20260507025553 45 0.0 0.0 0.00 0.00 0.00 10 1012.9
20260507024548 45 0.0 0.0 0.00 0.00 0.00 10 1012.9
20260507023543 45 0.0 0.0 0.00 0.00 0.00 10 1012.9
20260507022539 45 0.0 0.0 0.00 0.00 0.00 10 1012.8
20260507021534 45 0.0 0.0 0.00 0.00 0.00 10 1012.8
20260507020530 45 0.0 0.0 0.00 0.00 0.00 10 1012.8
20260507015525 45 0.0 0.0 0.00 0.00 0.00 10 1012.7
20260507014520 45 0.0 0.0 0.00 0.00 0.00 10 1012.7
20260507013516 45 0.0 0.0 0.00 0.00 0.00 10 1012.6
20260507012511 45 0.0 0.0 0.00 0.00 0.00 10 1012.5
20260507011507 45 0.0 0.0 0.00 0.00 0.00 10 1012.5
20260507010502 46 0.0 0.0 0.00 0.00 0.00 10 1012.6
20260507005457 46 0.0 0.0 0.00 0.00 0.00 10 1012.6
20260507004453 46 0.0 0.0 0.00 0.00 0.00 10 1012.6